Tracking 21045 objects as of 4-Aug-2020
HD Live streaming from Space Station
objects crossing your sky now

TIROS N DEB

Track TIROS N DEB now!
10-day predictions


NORAD ID: 11062
Int'l Code: 1978-096C
Perigee: 571.4 km
Apogee: 580.3 km
Inclination: 98.9 °
Period: 96.0 minutes
Semi major axis: 6946 km
RCS: 0.056 m2 (small)
Launch date: October 13, 1978
Source: United States (US)
Launch site: AIR FORCE WESTERN TEST RANGE (AFWTR)

Note: This is SATELLITE DEBRIS
aabbcc
Your satellite tracking list
Your tracking list is empty




NASA's NSSDC Master Catalog

Two Line Element Set (TLE):
1 11062U 78096C   20216.88137110 +.00000512 +00000-0 +48030-4 0  9997
2 11062 098.8928 231.1635 0006470 310.6770 049.3886 14.99412022215020
Source of the keplerian elements: AFSPC